Pipestone, MN

5:00 AM CDT on October 15, 2019 (GMT -0500)
Pipestone Municipal

Weather History for KPQN - September, 2019

Change the Weather History Date:

Tuesday, September 17, 2019

  Actual Average Record
Temperature  
Mean Temperature 78 °F -  
Max Temperature 84 °F 68 °F 87 °F (2000)
Min Temperature 73 °F 47 °F 42 °F (2012)
Cooling Degree Days 14    
Growing Degree Days 28 (Base 50)    
Moisture  
Dew Point 69 °F    
Average Humidity 75    
Maximum Humidity 88    
Minimum Humidity 62    
Precipitation  
Precipitation 0.00 in - - ()
Sea Level Pressure  
Sea Level Pressure 29.87 in    
Wind  
Wind Speed 15 mph ()    
Max Wind Speed 24 mph    
Max Gust Speed 32 mph    
Visibility 10.0 miles    
Events Thunderstorm    
Averages and records for this station are not official NWS values.
T = Trace of Precipitation, MM = Missing Value Source: Averaged Metar Reports

Daily Weather History Graph

Daily Weather History Graph

Search for Another Location

Airport or City:

Astronomy

Sep. 17, 2019 Rise Set
Actual Time 7:06 AM CDT 7:32 PM CDT
Civil Twilight 6:37 AM CDT 8:01 PM CDT
Nautical Twilight 6:03 AM CDT 8:35 PM CDT
Astronomical Twilight 5:28 AM CDT 9:10 PM CDT
Moon 9:29 PM CDT (9/17) 10:17 AM CDT (9/17)
Length of Visible Light 13h 23m
Length of Day
12h 25m
Waning Gibbous, 89% of the Moon is Illuminated
Sep 17
Waning Gibbous
Sep 21
Last Quarter
Sep 28
New
Oct 5
First Quarter
Oct 13
Full

Hourly Weather History & Observations

Time (CDT) Temp. Heat Index Dew Point Humidity Pressure Visibility Wind Dir Wind Speed Gust Speed Precip Events Conditions
12:15 AM 75.2 °F - 69.8 °F 83% 29.93 in 10.0 mi South 11.5 mph - N/A   Scattered Clouds
12:35 AM 75.2 °F - 69.8 °F 83% 29.93 in 10.0 mi South 10.4 mph - N/A   Scattered Clouds
12:39 AM 75.2 °F - 69.8 °F 83% 29.92 in 10.0 mi SSW 11.5 mph - N/A   Scattered Clouds
12:58 AM 75.2 °F - 69.8 °F 83% 29.92 in 10.0 mi South 12.7 mph 16.1 mph N/A   Scattered Clouds
1:16 AM 75.2 °F - 69.8 °F 83% 29.93 in 10.0 mi South 15.0 mph 19.6 mph N/A   Scattered Clouds
1:35 AM 75.2 °F - 69.8 °F 83% 29.92 in 10.0 mi SSW 12.7 mph 19.6 mph N/A   Mostly Cloudy
1:36 AM 75.2 °F - 69.8 °F 83% 29.92 in 10.0 mi SSW 13.8 mph 19.6 mph N/A   Mostly Cloudy
1:55 AM 75.2 °F - 69.8 °F 83% 29.92 in 10.0 mi SSW 16.1 mph 24.2 mph N/A Thunderstorm Scattered Clouds
1:56 AM 75.2 °F - 69.8 °F 83% 29.92 in 10.0 mi SSW 16.1 mph 24.2 mph N/A Thunderstorm Scattered Clouds
2:18 AM 75.2 °F - 69.8 °F 83% 29.91 in 10.0 mi South 18.4 mph 21.9 mph N/A   Scattered Clouds
2:36 AM 75.2 °F - 69.8 °F 83% 29.91 in 10.0 mi South 17.3 mph 25.3 mph N/A Thunderstorm Scattered Clouds
2:55 AM 75.2 °F - 69.8 °F 83% 29.91 in 10.0 mi South 16.1 mph - N/A Thunderstorm Scattered Clouds
2:56 AM 75.2 °F - 69.8 °F 83% 29.91 in 10.0 mi South 15.0 mph - N/A Thunderstorm Scattered Clouds
3:15 AM 75.2 °F - 69.8 °F 83% 29.90 in 10.0 mi South 17.3 mph 25.3 mph N/A   Mostly Cloudy
3:16 AM 75.2 °F - 69.8 °F 83% 29.90 in 10.0 mi South 16.1 mph 25.3 mph N/A   Mostly Cloudy
3:35 AM 75.2 °F - 69.8 °F 83% 29.90 in 10.0 mi South 15.0 mph 24.2 mph N/A   Mostly Cloudy
3:40 AM 75.2 °F - 69.8 °F 83% 29.90 in 10.0 mi South 18.4 mph 25.3 mph N/A Thunderstorm Mostly Cloudy
3:57 AM 75.2 °F - 69.8 °F 83% 29.90 in 10.0 mi SSW 15.0 mph 19.6 mph N/A   Mostly Cloudy
4:16 AM 73.4 °F - 69.8 °F 88% 29.90 in 10.0 mi SSW 15.0 mph 21.9 mph N/A Thunderstorm Mostly Cloudy
4:35 AM 73.4 °F - 69.8 °F 88% 29.89 in 10.0 mi SSW 13.8 mph 19.6 mph N/A   Mostly Cloudy
4:36 AM 73.4 °F - 69.8 °F 88% 29.89 in 10.0 mi SSW 15.0 mph 19.6 mph N/A   Mostly Cloudy
4:55 AM 73.4 °F - 69.8 °F 88% 29.89 in 10.0 mi South 16.1 mph 21.9 mph N/A Thunderstorm Scattered Clouds
4:56 AM 73.4 °F - 69.8 °F 88% 29.89 in 10.0 mi South 15.0 mph 20.7 mph N/A Thunderstorm Scattered Clouds
5:19 AM 73.4 °F - 68.0 °F 83% 29.89 in 10.0 mi SSW 19.6 mph 27.6 mph N/A   Clear
5:36 AM 75.2 °F - 68.0 °F 78% 29.89 in 10.0 mi SSW 18.4 mph 26.5 mph N/A   Scattered Clouds
5:55 AM 75.2 °F - 68.0 °F 78% 29.88 in 10.0 mi SSW 19.6 mph 27.6 mph N/A   Scattered Clouds
6:15 AM 75.2 °F - 68.0 °F 78% 29.89 in 10.0 mi SSW 18.4 mph 23.0 mph N/A   Mostly Cloudy
6:16 AM 75.2 °F - 68.0 °F 78% 29.89 in 10.0 mi SSW 16.1 mph 23.0 mph N/A   Mostly Cloudy
6:35 AM 75.2 °F - 68.0 °F 78% 29.89 in 10.0 mi SSW 18.4 mph 26.5 mph N/A   Mostly Cloudy
6:57 AM 73.4 °F - 68.0 °F 83% 29.89 in 10.0 mi SSW 16.1 mph - N/A   Mostly Cloudy
7:15 AM 73.4 °F - 68.0 °F 83% 29.90 in 10.0 mi SSW 16.1 mph 24.2 mph N/A   Mostly Cloudy
7:35 AM 73.4 °F - 68.0 °F 83% 29.90 in 10.0 mi South 17.3 mph 24.2 mph N/A   Scattered Clouds
7:55 AM 73.4 °F - 68.0 °F 83% 29.90 in 10.0 mi South 13.8 mph 20.7 mph N/A   Clear
8:19 AM 73.4 °F - 69.8 °F 88% 29.90 in 10.0 mi South 15.0 mph 23.0 mph N/A   Clear
8:36 AM 75.2 °F - 69.8 °F 83% 29.90 in 10.0 mi SSW 16.1 mph 21.9 mph N/A   Clear
8:56 AM 75.2 °F - 69.8 °F 83% 29.89 in 10.0 mi SSW 18.4 mph 21.9 mph N/A   Clear
9:15 AM 75.2 °F - 68.0 °F 78% 29.89 in 10.0 mi SSW 16.1 mph 25.3 mph N/A   Clear
9:35 AM 75.2 °F - 69.8 °F 83% 29.89 in 10.0 mi SSW 16.1 mph 24.2 mph N/A   Clear
9:39 AM 75.2 °F - 69.8 °F 83% 29.89 in 10.0 mi SSW 18.4 mph 23.0 mph N/A   Clear
9:58 AM 77.0 °F - 69.8 °F 78% 29.89 in 10.0 mi SSW 20.7 mph 26.5 mph N/A   Clear
10:15 AM 78.8 °F - 69.8 °F 74% 29.89 in 10.0 mi SSW 23.0 mph 28.8 mph N/A   Clear
10:35 AM 78.8 °F - 69.8 °F 74% 29.88 in 10.0 mi SSW 19.6 mph 28.8 mph N/A   Clear
10:36 AM 78.8 °F - 69.8 °F 74% 29.88 in 10.0 mi SSW 20.7 mph 27.6 mph N/A   Clear
10:55 AM 80.6 °F 83.9 °F 69.8 °F 70% 29.88 in 10.0 mi SSW 24.2 mph 29.9 mph N/A   Clear
11:18 AM 80.6 °F 83.9 °F 69.8 °F 70% 29.88 in 10.0 mi SW 20.7 mph 31.1 mph N/A   Clear
11:37 AM 82.4 °F 86.3 °F 69.8 °F 66% 29.88 in 10.0 mi SSW 19.6 mph 29.9 mph N/A   Clear
11:56 AM 82.4 °F 86.3 °F 69.8 °F 66% 29.88 in 10.0 mi SW 18.4 mph 28.8 mph N/A   Clear
12:15 PM 82.4 °F 86.3 °F 69.8 °F 66% 29.88 in 10.0 mi SSW 21.9 mph 28.8 mph N/A   Clear
12:35 PM 84.2 °F 88.4 °F 69.8 °F 62% 29.88 in 10.0 mi SSW 20.7 mph 28.8 mph N/A   Clear
12:39 PM 84.2 °F 88.4 °F 69.8 °F 62% 29.88 in 10.0 mi SSW 21.9 mph 32.2 mph N/A   Clear
12:57 PM 84.2 °F 88.4 °F 69.8 °F 62% 29.88 in 10.0 mi SSW 19.6 mph 28.8 mph N/A   Clear
1:16 PM 84.2 °F 88.4 °F 69.8 °F 62% 29.87 in 10.0 mi SSW 19.6 mph 29.9 mph N/A   Scattered Clouds
1:35 PM 84.2 °F 89.6 °F 71.6 °F 66% 29.87 in 10.0 mi SSW 18.4 mph 26.5 mph N/A   Clear
1:36 PM 84.2 °F 89.6 °F 71.6 °F 66% 29.87 in 10.0 mi SSW 18.4 mph 26.5 mph N/A   Clear
1:55 PM 84.2 °F 88.4 °F 69.8 °F 62% 29.86 in 10.0 mi SSW 15.0 mph 28.8 mph N/A   Clear
1:56 PM 84.2 °F 89.6 °F 71.6 °F 66% 29.86 in 10.0 mi SSW 15.0 mph 28.8 mph N/A   Clear
2:18 PM 84.2 °F 88.4 °F 69.8 °F 62% 29.86 in 10.0 mi SSW 18.4 mph 28.8 mph N/A   Clear
2:36 PM 84.2 °F 88.4 °F 69.8 °F 62% 29.85 in 10.0 mi SSW 19.6 mph 31.1 mph N/A   Clear
2:55 PM 84.2 °F 88.4 °F 69.8 °F 62% 29.84 in 10.0 mi SSW 21.9 mph 31.1 mph N/A   Clear
2:56 PM 84.2 °F 88.4 °F 69.8 °F 62% 29.84 in 10.0 mi SSW 19.6 mph 31.1 mph N/A   Clear
3:15 PM 84.2 °F 89.6 °F 71.6 °F 66% 29.84 in 10.0 mi SSW 23.0 mph 29.9 mph N/A   Clear
3:16 PM 84.2 °F 89.6 °F 71.6 °F 66% 29.84 in 10.0 mi SSW 23.0 mph 29.9 mph N/A   Clear
3:35 PM 84.2 °F 89.6 °F 71.6 °F 66% 29.84 in 10.0 mi SSW 19.6 mph 28.8 mph N/A   Clear
3:57 PM 84.2 °F 89.6 °F 71.6 °F 66% 29.83 in 10.0 mi SSW 19.6 mph 27.6 mph N/A   Clear
4:15 PM 84.2 °F 88.4 °F 69.8 °F 62% 29.83 in 10.0 mi SSW 19.6 mph 32.2 mph N/A   Clear
4:35 PM 84.2 °F 88.4 °F 69.8 °F 62% 29.83 in 10.0 mi SSW 19.6 mph 31.1 mph N/A   Clear
4:55 PM 84.2 °F 88.4 °F 69.8 °F 62% 29.82 in 10.0 mi SSW 17.3 mph 27.6 mph N/A   Clear
4:56 PM 84.2 °F 88.4 °F 69.8 °F 62% 29.82 in 10.0 mi SSW 20.7 mph 27.6 mph N/A   Clear
5:19 PM 82.4 °F 86.3 °F 69.8 °F 66% 29.82 in 10.0 mi SSW 19.6 mph 27.6 mph N/A   Clear
5:36 PM 82.4 °F 86.3 °F 69.8 °F 66% 29.82 in 10.0 mi SSW 19.6 mph 26.5 mph N/A   Clear
5:56 PM 82.4 °F 86.3 °F 69.8 °F 66% 29.82 in 10.0 mi SSW 18.4 mph 27.6 mph N/A   Clear
6:15 PM 80.6 °F 83.9 °F 69.8 °F 70% 29.82 in 10.0 mi SSW 15.0 mph 21.9 mph N/A   Clear
6:35 PM 80.6 °F 83.9 °F 69.8 °F 70% 29.82 in 10.0 mi SSW 12.7 mph 19.6 mph N/A   Clear
6:39 PM 80.6 °F 83.9 °F 69.8 °F 70% 29.82 in 10.0 mi SSW 13.8 mph 19.6 mph N/A   Clear
6:58 PM 80.6 °F 83.2 °F 68.0 °F 65% 29.82 in 10.0 mi South 15.0 mph 21.9 mph N/A   Scattered Clouds
7:15 PM 78.8 °F - 68.0 °F 69% 29.82 in 10.0 mi South 11.5 mph - N/A   Scattered Clouds
7:35 PM 78.8 °F - 68.0 °F 69% 29.82 in 10.0 mi South 15.0 mph 19.6 mph N/A   Clear
7:36 PM 78.8 °F - 68.0 °F 69% 29.82 in 10.0 mi South 15.0 mph 19.6 mph N/A   Clear
7:55 PM 78.8 °F - 68.0 °F 69% 29.83 in 10.0 mi South 13.8 mph 18.4 mph N/A   Clear
7:56 PM 78.8 °F - 68.0 °F 69% 29.83 in 10.0 mi South 15.0 mph 18.4 mph N/A   Clear
8:18 PM 78.8 °F - 68.0 °F 69% 29.83 in 10.0 mi South 12.7 mph 19.6 mph N/A   Clear
8:37 PM 77.0 °F - 68.0 °F 74% 29.84 in 10.0 mi South 12.7 mph - N/A   Clear
8:56 PM 77.0 °F - 68.0 °F 74% 29.84 in 10.0 mi South 13.8 mph 18.4 mph N/A   Clear
9:15 PM 77.0 °F - 68.0 °F 74% 29.84 in 10.0 mi South 12.7 mph 18.4 mph N/A   Clear
9:16 PM 77.0 °F - 68.0 °F 74% 29.84 in 10.0 mi South 11.5 mph 18.4 mph N/A   Clear
9:35 PM 77.0 °F - 68.0 °F 74% 29.84 in 10.0 mi South 13.8 mph 20.7 mph N/A   Clear
9:39 PM 77.0 °F - 68.0 °F 74% 29.84 in 10.0 mi South 13.8 mph 20.7 mph N/A   Clear
9:58 PM 75.2 °F - 68.0 °F 78% 29.84 in 10.0 mi South 13.8 mph 20.7 mph N/A   Clear
10:16 PM 75.2 °F - 68.0 °F 78% 29.84 in 10.0 mi South 13.8 mph 19.6 mph N/A   Clear
10:35 PM 75.2 °F - 68.0 °F 78% 29.84 in 10.0 mi South 13.8 mph - N/A   Clear
10:36 PM 75.2 °F - 68.0 °F 78% 29.84 in 10.0 mi South 12.7 mph - N/A   Clear
10:55 PM 75.2 °F - 68.0 °F 78% 29.84 in 10.0 mi South 15.0 mph 20.7 mph N/A   Clear
10:56 PM 75.2 °F - 68.0 °F 78% 29.84 in 10.0 mi South 13.8 mph 20.7 mph N/A   Clear
11:19 PM 75.2 °F - 68.0 °F 78% 29.83 in 10.0 mi South 13.8 mph 19.6 mph N/A   Clear
11:36 PM 75.2 °F - 66.2 °F 73% 29.83 in 10.0 mi South 16.1 mph 20.7 mph N/A   Clear
11:56 PM 75.2 °F - 66.2 °F 73% 29.83 in 10.0 mi SSW 13.8 mph 23.0 mph N/A Thunderstorm Clear